Regional Weather Roundup
Issued by NWS Northern Indiana

Home | Current Version | Previous Version | Text Only | Print | Product List | Glossary Off
Versions: 1 2 3 4 5 6 7 8 9 10 11 12 13 14 15 16 17 18 19 20 21 22 23 24 25 26 27 28 29 30 31 32 33 34 35 36 37 38 39 40 41 42 43 44 45 46 47 48 49 50

000
ASUS43 KIWX 011510
RWRIWX

KIWX WEATHER ROUNDUP
NATIONAL WEATHER SERVICE NORTHERN INDIANA
1100 AM EDT SUN MAY 01 2016

NOTE: "FAIR" INDICATES FEW OR NO CLOUDS BELOW 12,000 FEET WITH NO
SIGNIFICANT WEATHER AND/OR OBSTRUCTIONS TO VISIBILITY.

* THESE STATIONS ARE NOT UNDER NWS QUALITY CONTROL. THEY ALSO MAY NOT
  REPORT WEATHER SUCH AS PRECIPITATION OR FOG.

INZ001>027-011600-
NORTHERN INDIANA

CITY           SKY/WX    TMP DP  RH WIND       PRES   REMARKS
VALPARAISO     CLOUDY    51  49  92 N7        29.97R
MICHIGAN CITY* CLOUDY    48  48 100 N7        29.98S FOG
LAPORTE*       CLOUDY   N/A N/A N/A NE6       29.97R HAZE
KNOX*          CLOUDY    50  50 100 N10       29.95S
SOUTH BEND     CLOUDY    50  49  96 NE7       29.97R FOG
ELKHART*       CLOUDY    50  50 100 MISG      29.97S FOG
GOSHEN         CLOUDY    51  49  92 NE8       29.96R FOG
MONTICELLO*    FOG       53  49  87 N3        29.95R VSB 1
LOGANSPORT*    CLOUDY    54  54 100 CALM      29.95R FOG
ROCHESTER*     CLOUDY    54  54 100 N7        29.95R FOG
ANGOLA*        CLOUDY    50  41  71 N5        29.95S
FORT WAYNE     FOG       54  52  93 E6        29.96R VSB 1/2
HUNTINGTON*    CLOUDY   N/A N/A N/A NE5       29.94R HAZE
MARION*        FOG       57  57 100 CALM      29.95R VSB 3/4

$$
INZ028>050-011600-
CENTRAL INDIANA

CITY           SKY/WX    TMP DP  RH WIND       PRES   REMARKS
LAFAYETTE      CLOUDY    57  55  93 CALM      29.94R FOG
KOKOMO*        CLOUDY    57  55  94 CALM      29.93S
MUNCIE*        MOSUNNY   70  58  65 VRB3      29.93S
INDIANAPOLIS   MOSUNNY   70  56  61 VRB3      29.92R

$$
MIZ043>046-050>051-056>058-064>065-071>073-077>080-011600-
SOUTHWEST LOWER MICHIGAN

CITY           SKY/WX    TMP DP  RH WIND       PRES   REMARKS
BATTLE CREEK   CLOUDY    47  45  93 NE9       29.99R
BENTON HARBOR  CLOUDY    50  46  86 NE7       29.99R
COLDWATER*     CLOUDY    50  50 100 NE5       29.97R FOG
HILLSDALE*     CLOUDY    49  49 100 NE3       29.96S FOG
HOLLAND        CLOUDY    50  46  86 E7        30.00R
GRAND RAPIDS   DRIZZLE   49  46  90 NE12      30.00S
KALAMAZOO      CLOUDY    48  45  89 NE7       29.98F
STURGIS*       CLOUDY    49  48  97 NE8       29.95F FOG
THREE RIVERS*  CLOUDY    49  49  99 NE6       29.97S FOG

$$
OHZ001>008-015>018-024>025-011600-
NORTHWEST OHIO

CITY           SKY/WX    TMP DP  RH WIND       PRES   REMARKS
WAUSEON*         N/A     50 N/A N/A NE6       29.96R FOG
DEFIANCE       CLOUDY    54  50  86 NE6       29.96R
FINDLAY        CLOUDY    59  53  80 E3        29.93S
TOLEDO EXPRESS CLOUDY    51  50  96 NE5       29.96R FOG
TOLEDO METCALF CLOUDY    51  49  92 NE6       29.96R FOG
LIMA           CLOUDY    60  60 100 CALM      29.94R FOG

$$
AND FOR LAKE MICHIGAN COASTAL AND OPEN LAKE BUOY OBSERVATIONS

STATION/POSITION TEMP    WIND        PRES    VSBY  WAVE
                 AIR SEA DIR/SP/G                  HT/PER
                 (F)     (DEG/KT/KT) (MB)    (MI)  (FT/S)
CALUMET HARBOR    44      20/ 14/ 18 1014.8R
MICHIGAN CITY     45      10/ 14/ 15   N/A
BURNS HARBOR      44      20/ 16/ 17 1015.6R
SAINT JOSEPH      49      20/  3/  5 1015.9R
SOUTH LAKE BUOY   42 40   40/ 12/ 14 1016.3R         3/ 4
4 MI NW BRIDGMAN  47 48                N/A           2/ 4

$$
&&



USA.gov is the U.S. government's official web portal to all federal, state and local government web resources and services.